CW4206 Weather Reports


time (UTC)temp
C
wind
direction
speed
KPH
gust
KPH
rain 1hr
cm
rain 24hr
cm
rain mn
cm
humidity
%
barometer
mb
20260506014033 21 209 0.0 3.2 0.00 0.00 0.00 64 1014.2
20260506013533 21 0 0.0 3.2 0.00 0.00 0.00 65 1014.1
20260506013044 21 0 0.0 3.2 0.00 0.00 0.00 64 1014.1
20260506012532 21 169 0.0 3.2 0.00 0.00 0.00 64 1014.0
20260506012035 21 331 0.0 3.2 0.00 0.00 0.00 63 1014.0
20260506011550 21 0 0.0 3.2 0.00 0.00 0.00 63 1013.9
20260506011033 21 331 0.0 1.6 0.00 0.00 0.00 63 1013.9
20260506010532 21 0 0.0 1.6 0.00 0.00 0.00 61 1013.8
20260506010046 21 0 0.0 0.0 0.00 0.00 0.00 61 1013.8
20260506005532 21 0 0.0 0.0 0.00 0.00 0.00 60 1013.8
20260506005036 22 0 0.0 1.6 0.00 0.00 0.00 59 1013.7
20260506004618 22 0 0.0 1.6 0.00 0.00 0.00 59 1013.8
20260506004033 22 0 0.0 3.2 0.00 0.00 0.00 58 1013.7
20260506003533 22 0 0.0 6.4 0.00 0.00 0.00 58 1013.8
20260506003043 22 284 0.0 6.4 0.00 0.00 0.00 57 1013.7
20260506002533 22 227 0.0 4.8 0.00 0.00 0.00 57 1013.8
20260506002034 22 0 0.0 9.7 0.00 0.00 0.00 56 1013.7
20260506001547 22 0 1.6 9.7 0.00 0.00 0.00 56 1013.7
20260506001032 22 269 1.6 9.7 0.00 0.00 0.00 56 1013.7
20260506000532 23 0 0.0 4.8 0.00 0.00 0.00 55 1013.6
20260506000048 23 146 0.0 3.2 0.00 0.00 0.00 55 1013.6
20260505235532 23 0 0.0 8.0 0.00 0.00 0.00 54 1013.6
20260505235033 23 0 0.0 8.0 0.00 0.00 0.00 54 1013.5
20260505234606 23 216 0.0 9.7 0.00 0.00 0.00 54 1013.5
20260505234032 23 223 0.0 9.7 0.00 0.00 0.00 53 1013.5
20260505233532 23 240 1.6 17.7 0.00 0.00 0.00 53 1013.4
20260505233042 23 323 1.6 17.7 0.00 0.00 0.00 52 1013.4
20260505232532 23 198 0.0 9.7 0.00 0.00 0.00 52 1013.4
20260505232034 24 200 0.0 9.7 0.00 0.00 0.00 52 1013.5
20260505231546 24 224 1.6 8.0 0.00 0.00 0.00 51 1013.5
20260505231033 24 67 1.6 6.4 0.00 0.00 0.00 51 1013.5
20260505230532 24 0 0.0 4.8 0.00 0.00 0.00 51 1013.4
20260505230050 24 0 0.0 4.8 0.00 0.00 0.00 50 1013.4
20260505225534 25 0 0.0 9.7 0.00 0.00 0.00 52 1013.5
20260505225033 25 147 1.6 14.5 0.00 0.00 0.00 50 1013.5
20260505224546 25 0 3.2 14.5 0.00 0.00 0.00 50 1013.6
20260505224032 25 138 0.0 14.5 0.00 0.00 0.00 50 1013.6
20260505223532 25 234 0.0 14.5 0.00 0.00 0.00 50 1013.5
20260505223101 25 155 1.6 11.3 0.00 0.00 0.00 49 1013.4
20260505222533 25 159 3.2 12.9 0.00 0.00 0.00 48 1013.4
20260505222033 25 228 1.6 12.9 0.00 0.00 0.00 48 1013.5
20260505221606 25 240 1.6 16.1 0.00 0.00 0.00 47 1013.4
20260505221032 26 123 1.6 16.1 0.00 0.00 0.00 47 1013.3
20260505220535 26 201 1.6 16.1 0.00 0.00 0.00 47 1013.4
20260505215533 26 209 1.6 17.7 0.00 0.00 0.00 45 1013.3
20260505215032 26 220 1.6 19.3 0.00 0.00 0.00 45 1013.5
20260505214603 26 16 3.2 19.3 0.00 0.00 0.00 44 1013.2
20260505214033 26 173 3.2 19.3 0.00 0.00 0.00 45 1013.3
20260505213532 26 242 1.6 19.3 0.00 0.00 0.00 45 1013.2
20260505213046 26 204 1.6 11.3 0.00 0.00 0.00 46 1013.3
20260505212530 26 236 1.6 17.7 0.00 0.00 0.00 45 1013.4
20260505212030 26 243 3.2 19.3 0.00 0.00 0.00 45 1013.5
20260505211558 26 199 4.8 19.3 0.00 0.00 0.00 45 1013.5
20260505211033 26 159 3.2 17.7 0.00 0.00 0.00 46 1013.5
20260505210531 26 162 1.6 17.7 0.00 0.00 0.00 45 1013.5
20260505210048 26 202 1.6 16.1 0.00 0.00 0.00 46 1013.5
20260505205531 26 148 3.2 19.3 0.00 0.00 0.00 45 1013.6
20260505205032 26 231 3.2 19.3 0.00 0.00 0.00 44 1013.6
20260505204549 26 346 1.6 17.7 0.00 0.00 0.00 45 1013.6
20260505204032 26 239 1.6 17.7 0.00 0.00 0.00 42 1013.5
20260505203533 27 90 3.2 17.7 0.00 0.00 0.00 43 1013.5
20260505203046 27 202 3.2 17.7 0.00 0.00 0.00 41 1013.4
20260505202533 27 125 3.2 17.7 0.00 0.00 0.00 41 1013.3
20260505202032 27 150 3.2 12.9 0.00 0.00 0.00 40 1013.6
20260505201550 27 198 3.2 19.3 0.00 0.00 0.00 40 1013.6
20260505201032 28 137 3.2 19.3 0.00 0.00 0.00 41 1013.7
20260505200533 28 172 1.6 17.7 0.00 0.00 0.00 41 1013.7
20260505200056 28 180 3.2 22.5 0.00 0.00 0.00 41 1013.7
20260505195532 28 227 3.2 22.5 0.00 0.00 0.00 40 1013.7
20260505195031 28 0 3.2 19.3 0.00 0.00 0.00 39 1013.6
20260505194543 29 248 3.2 11.3 0.00 0.00 0.00 39 1013.6
20260505194033 29 211 3.2 12.9 0.00 0.00 0.00 39 1013.7
20260505193533 29 161 1.6 14.5 0.00 0.00 0.00 39 1013.8
20260505193047 29 0 3.2 22.5 0.00 0.00 0.00 38 1013.8
20260505192534 30 34 1.6 22.5 0.00 0.00 0.00 39 1013.7
20260505192032 30 205 3.2 19.3 0.00 0.00 0.00 37 1013.9
20260505191547 30 119 1.6 14.5 0.00 0.00 0.00 38 1014.1
20260505191033 30 157 3.2 14.5 0.00 0.00 0.00 37 1014.1
20260505190532 30 219 1.6 11.3 0.00 0.00 0.00 37 1014.1
20260505190049 30 197 3.2 27.4 0.00 0.00 0.00 37 1014.2
20260505185532 29 166 1.6 27.4 0.00 0.00 0.00 36 1014.3
20260505185032 30 158 4.8 20.9 0.00 0.00 0.00 37 1014.4
20260505184545 30 135 3.2 20.9 0.00 0.00 0.00 35 1014.5
20260505184032 30 157 3.2 16.1 0.00 0.00 0.00 37 1014.7
20260505183531 30 0 1.6 14.5 0.00 0.00 0.00 37 1014.6
20260505183048 30 32 1.6 14.5 0.00 0.00 0.00 36 1014.7
20260505182533 30 203 3.2 16.1 0.00 0.00 0.00 35 1014.8
20260505182031 30 204 3.2 16.1 0.00 0.00 0.00 34 1015.0
20260505181543 30 191 3.2 11.3 0.00 0.00 0.00 34 1015.0
20260505181036 30 203 1.6 17.7 0.00 0.00 0.00 35 1015.1
20260505180533 29 188 0.0 17.7 0.00 0.00 0.00 38 1015.0
20260505180043 29 82 1.6 19.3 0.00 0.00 0.00 38 1015.2
20260505175532 28 269 4.8 19.3 0.00 0.00 0.00 37 1015.0
20260505175032 29 233 1.6 12.9 0.00 0.00 0.00 37 1015.0
20260505174558 28 175 1.6 8.0 0.00 0.00 0.00 38 1015.1
20260505174032 28 198 3.2 11.3 0.00 0.00 0.00 37 1015.0
20260505173536 28 294 3.2 14.5 0.00 0.00 0.00 39 1015.0
20260505173050 28 165 1.6 14.5 0.00 0.00 0.00 37 1015.1
20260505172532 28 173 1.6 14.5 0.00 0.00 0.00 39 1015.2
20260505172032 28 97 1.6 8.0 0.00 0.00 0.00 38 1015.2
20260505171543 28 196 1.6 11.3 0.00 0.00 0.00 38 1015.2
20260505171030 28 186 1.6 11.3 0.00 0.00 0.00 39 1015.3
20260505170531 28 205 1.6 11.3 0.00 0.00 0.00 40 1015.2
20260505170048 28 213 1.6 8.0 0.00 0.00 0.00 41 1015.4
20260505165530 28 219 1.6 8.0 0.00 0.00 0.00 41 1015.5
20260505165032 27 0 1.6 8.0 0.00 0.00 0.00 40 1015.5
20260505164546 27 221 1.6 8.0 0.00 0.00 0.00 41 1015.6
20260505164032 27 220 1.6 16.1 0.00 0.00 0.00 42 1015.5
20260505163531 27 213 1.6 16.1 0.00 0.00 0.00 42 1015.7
20260505163049 27 0 0.0 9.7 0.00 0.00 0.00 44 1015.6
20260505162530 27 244 1.6 16.1 0.00 0.00 0.00 45 1015.8
20260505162030 26 277 3.2 16.1 0.00 0.00 0.00 46 1015.9
20260505161544 26 188 0.0 12.9 0.00 0.00 0.00 46 1016.0
20260505161030 26 234 1.6 14.5 0.00 0.00 0.00 46 1016.2
20260505160532 26 200 3.2 17.7 0.00 0.00 0.00 45 1016.2
20260505153050 25 322 1.6 16.1 0.00 0.00 0.00 49 1016.4
20260505152531 24 0 1.6 8.0 0.00 0.00 0.00 52 1016.4
20260505152033 24 240 1.6 11.3 0.00 0.00 0.00 53 1016.3
20260505151546 23 290 3.2 11.3 0.00 0.00 0.00 53 1016.2
20260505151031 23 214 3.2 11.3 0.00 0.00 0.00 52 1016.3
20260505150530 23 219 1.6 12.9 0.00 0.00 0.00 54 1016.3
20260505140533 21 240 3.2 8.0 0.00 0.00 0.00 61 1016.2
20260505125035 17 196 1.6 11.3 0.00 0.00 0.00 73 1016.6
20260505124605 16 222 0.0 6.4 0.00 0.00 0.00 76 1016.5
20260505124032 16 200 1.6 4.8 0.00 0.00 0.00 76 1016.6
20260505123531 16 214 0.0 4.8 0.00 0.00 0.00 78 1016.4
20260505123058 16 211 0.0 6.4 0.00 0.00 0.00 79 1016.5
20260505122532 15 113 0.0 8.0 0.00 0.00 0.00 78 1016.5
20260505122032 15 0 1.6 8.0 0.00 0.00 0.00 79 1016.5
20260505121547 15 286 0.0 4.8 0.00 0.00 0.00 79 1016.4
20260505121034 15 252 0.0 8.0 0.00 0.00 0.00 80 1016.3
20260505120532 15 222 0.0 8.0 0.00 0.00 0.00 81 1016.3
20260505120053 14 0 0.0 14.5 0.00 0.00 0.00 81 1016.3
20260505115532 14 269 0.0 14.5 0.00 0.00 0.00 82 1016.3
20260505115032 13 238 1.6 6.4 0.00 0.00 0.00 82 1016.3
20260505114549 13 0 0.0 6.4 0.00 0.00 0.00 83 1016.3
20260505114031 13 234 0.0 4.8 0.00 0.00 0.00 84 1016.3
20260505113538 13 234 0.0 4.8 0.00 0.00 0.00 84 1016.2
20260505113045 13 0 0.0 4.8 0.00 0.00 0.00 85 1016.2
20260505112536 13 0 0.0 4.8 0.00 0.00 0.00 84 1016.1
20260505112034 13 0 0.0 3.2 0.00 0.00 0.00 85 1016.1
20260505111542 12 0 0.0 3.2 0.00 0.00 0.00 84 1016.1
20260505111031 12 0 0.0 1.6 0.00 0.00 0.00 85 1015.9
20260505110532 12 0 0.0 0.0 0.00 0.00 0.00 85 1015.9
20260505102034 12 0 0.0 1.6 0.00 0.00 0.00 84 1015.5
20260505101546 12 0 0.0 0.0 0.00 0.00 0.00 84 1015.4
20260505101033 12 0 0.0 0.0 0.00 0.00 0.00 84 1015.4
20260505100532 12 0 0.0 1.6 0.00 0.00 0.00 84 1015.3
20260505100046 12 0 0.0 1.6 0.00 0.00 0.00 84 1015.3
20260505095532 12 0 0.0 0.0 0.00 0.00 0.00 84 1015.2
20260505095032 12 0 0.0 0.0 0.00 0.00 0.00 84 1015.3
20260505094544 12 0 0.0 0.0 0.00 0.00 0.00 83 1015.2
20260505094030 12 0 0.0 0.0 0.00 0.00 0.00 83 1015.3
20260505093531 13 0 0.0 1.6 0.00 0.00 0.00 83 1015.1
20260505093040 13 0 0.0 1.6 0.00 0.00 0.00 84 1015.0
20260505092532 13 0 0.0 1.6 0.00 0.00 0.00 83 1015.2
20260505092029 13 0 0.0 1.6 0.00 0.00 0.00 83 1015.0
20260505091559 13 0 0.0 1.6 0.00 0.00 0.00 83 1015.0
20260505091033 13 0 0.0 1.6 0.00 0.00 0.00 83 1015.1
20260505090532 13 0 0.0 1.6 0.00 0.00 0.00 82 1015.1
20260505090048 13 0 0.0 1.6 0.00 0.00 0.00 82 1015.0
20260505085532 13 0 0.0 3.2 0.00 0.00 0.00 82 1015.0
20260505085033 13 0 0.0 3.2 0.00 0.00 0.00 82 1015.0
20260505084548 13 0 0.0 3.2 0.00 0.00 0.00 82 1015.0
20260505084031 13 0 0.0 3.2 0.00 0.00 0.00 82 1015.0
20260505083531 13 0 0.0 3.2 0.00 0.00 0.00 82 1014.7
20260505083046 13 0 0.0 3.2 0.00 0.00 0.00 81 1014.9
20260505082531 13 0 0.0 1.6 0.00 0.00 0.00 81 1014.9
20260505082030 13 0 0.0 3.2 0.00 0.00 0.00 81 1014.8
20260505081543 13 0 0.0 3.2 0.00 0.00 0.00 80 1014.8
20260505081033 13 0 0.0 1.6 0.00 0.00 0.00 81 1014.7
20260505080531 14 0 0.0 3.2 0.00 0.00 0.00 80 1014.8
20260505080103 14 0 0.0 9.7 0.00 0.00 0.00 80 1014.8
20260505075532 14 0 0.0 9.7 0.00 0.00 0.00 80 1014.9
20260505075032 14 0 0.0 6.4 0.00 0.00 0.00 79 1014.8
20260505074542 14 196 0.0 6.4 0.00 0.00 0.00 79 1014.8
20260505074031 14 0 0.0 4.8 0.00 0.00 0.00 79 1014.8
20260505073532 15 0 0.0 4.8 0.00 0.00 0.00 78 1014.7
20260505073052 15 0 0.0 4.8 0.00 0.00 0.00 77 1014.6
20260505072528 15 0 0.0 3.2 0.00 0.00 0.00 77 1014.6
20260505072034 15 0 0.0 3.2 0.00 0.00 0.00 77 1014.6
20260505071546 15 0 0.0 3.2 0.00 0.00 0.00 77 1014.6
20260505071033 15 0 0.0 8.0 0.00 0.00 0.00 76 1014.6
20260505070533 15 0 0.0 8.0 0.00 0.00 0.00 76 1014.5
20260505070052 15 233 0.0 8.0 0.00 0.00 0.00 75 1014.5
20260505065532 15 0 0.0 6.4 0.00 0.00 0.00 75 1014.5
20260505065034 15 0 0.0 4.8 0.00 0.00 0.00 76 1014.6
20260505064546 15 0 0.0 4.8 0.00 0.00 0.00 75 1014.6
20260505064033 16 0 0.0 8.0 0.00 0.00 0.00 75 1014.6
20260505063534 16 0 1.6 8.0 0.00 0.00 0.00 74 1014.6
20260505063108 16 0 1.6 6.4 0.00 0.00 0.00 74 1014.5
20260505062532 16 0 0.0 12.9 0.00 0.00 0.00 75 1014.5
20260505062033 16 0 0.0 12.9 0.00 0.00 0.00 74 1014.5
20260505061545 16 196 0.0 4.8 0.00 0.00 0.00 74 1014.5
20260505061037 16 0 0.0 4.8 0.00 0.00 0.00 74 1014.5
20260505060534 16 0 0.0 8.0 0.00 0.00 0.00 74 1014.6
20260505060046 16 0 1.6 8.0 0.00 0.00 0.00 74 1014.6
20260505055533 16 233 0.0 4.8 0.00 0.00 0.00 74 1014.5
20260505055035 16 0 0.0 8.0 0.00 0.00 0.00 74 1014.6
20260505054551 16 221 0.0 8.0 0.00 0.00 0.00 73 1014.6
20260505054035 16 223 0.0 11.3 0.00 0.00 0.00 73 1014.6
20260505053535 16 278 0.0 11.3 0.00 0.00 0.00 73 1014.5
20260505053055 16 194 0.0 8.0 0.00 0.00 0.00 73 1014.7
20260505052534 16 0 0.0 6.4 0.00 0.00 0.00 73 1014.7
20260505052033 16 254 0.0 4.8 0.00 0.00 0.00 73 1014.7
20260505051540 16 0 0.0 4.8 0.00 0.00 0.00 73 1014.7
20260505051033 16 0 0.0 8.0 0.00 0.00 0.00 72 1014.7
20260505050534 16 0 0.0 9.7 0.00 0.00 0.00 72 1014.8
20260505041553 17 0 0.0 9.7 0.00 0.00 0.00 71 1014.5
20260505041032 17 0 0.0 9.7 0.00 0.00 0.00 71 1014.6
20260505040534 17 286 0.0 3.2 0.00 0.00 0.00 71 1014.4
20260505040052 17 0 0.0 4.8 0.00 0.00 0.00 70 1014.4
20260505035533 17 0 0.0 6.4 0.00 0.00 0.00 70 1014.4
20260505035033 17 252 0.0 6.4 0.00 0.00 0.00 70 1014.4
20260505034546 17 217 0.0 6.4 0.00 0.00 0.00 70 1014.4
20260505034035 17 242 1.6 6.4 0.00 0.00 0.00 70 1014.4
20260505033534 17 242 1.6 6.4 0.00 0.00 0.00 69 1014.2
20260505033046 17 0 0.0 6.4 0.00 0.00 0.00 69 1014.2
20260505032533 17 219 0.0 8.0 0.00 0.00 0.00 69 1014.1
20260505032033 17 0 0.0 8.0 0.00 0.00 0.00 69 1014.2
20260505031553 17 199 0.0 3.2 0.00 0.00 0.00 68 1014.1
20260505031033 17 0 0.0 3.2 0.00 0.00 0.00 67 1014.2
20260505030535 17 194 0.0 3.2 0.00 0.00 0.00 66 1014.2
20260505030051 17 206 0.0 3.2 0.00 0.00 0.00 65 1014.2
20260505025534 17 0 0.0 3.2 0.00 0.00 0.00 63 1014.2
20260505025033 17 0 0.0 3.2 0.00 0.00 0.00 61 1014.2
20260505024556 17 0 0.0 1.6 0.00 0.00 0.00 61 1014.1
20260505024034 17 0 0.0 1.6 0.00 0.00 0.00 60 1014.1
20260505023534 17 0 0.0 1.6 0.00 0.00 0.00 60 1014.1
20260505023045 17 0 0.0 1.6 0.00 0.00 0.00 60 1014.0
20260505022533 17 0 0.0 1.6 0.00 0.00 0.00 60 1013.8
20260505022034 17 181 0.0 1.6 0.00 0.00 0.00 61 1013.7
20260505021548 17 0 0.0 1.6 0.00 0.00 0.00 61 1013.6
20260505021034 17 0 0.0 1.6 0.00 0.00 0.00 60 1013.5
20260505020534 17 0 0.0 0.0 0.00 0.00 0.00 60 1013.6
20260505020046 17 0 0.0 6.4 0.00 0.00 0.00 62 1013.6
20260505015536 17 0 0.0 11.3 0.00 0.00 0.00 60 1013.6
20260505015037 17 0 0.0 11.3 0.00 0.00 0.00 61 1013.6
20260505014601 17 0 0.0 1.6 0.00 0.00 0.00 62 1013.5